TimeMST,TemperatureF,Dew PointF,Humidity,Sea Level PressureIn,VisibilityMPH,Wind Direction,Wind SpeedMPH,Gust SpeedMPH,PrecipitationIn,Events,Conditions,WindDirDegrees,DateUTC
12:54 AM,15.1,9.0,77,30.48,10.0,WSW,23.0,-,N/A,,Clear,250,2012-11-12 07:54:00
1:54 AM,16.0,9.0,74,30.49,10.0,West,21.9,-,N/A,,Clear,260,2012-11-12 08:54:00
2:54 AM,15.1,9.0,77,30.51,10.0,West,13.8,-,N/A,,Clear,260,2012-11-12 09:54:00
3:54 AM,15.1,8.1,74,30.53,10.0,SW,9.2,-,N/A,,Clear,220,2012-11-12 10:54:00
4:54 AM,16.0,8.1,71,30.55,10.0,SSW,15.0,21.9,N/A,,Clear,200,2012-11-12 11:54:00
5:54 AM,16.0,8.1,71,30.57,10.0,SW,16.1,23.0,N/A,,Clear,230,2012-11-12 12:54:00
6:54 AM,16.0,8.1,71,30.57,10.0,WSW,18.4,-,N/A,,Clear,250,2012-11-12 13:54:00
7:54 AM,18.0,8.1,65,30.58,10.0,WSW,19.6,28.8,N/A,,Clear,250,2012-11-12 14:54:00
8:54 AM,19.0,9.0,65,30.60,10.0,WSW,19.6,-,N/A,,Clear,250,2012-11-12 15:54:00
9:54 AM,21.0,10.9,65,30.58,10.0,SW,10.4,16.1,N/A,,Clear,230,2012-11-12 16:54:00
10:54 AM,24.1,12.0,60,30.56,10.0,WSW,17.3,-,N/A,,Clear,250,2012-11-12 17:54:00
11:54 AM,25.0,12.0,58,30.54,10.0,SSW,9.2,-,N/A,,Clear,210,2012-11-12 18:54:00
12:54 PM,27.0,12.9,56,30.50,10.0,WSW,11.5,-,N/A,,Clear,250,2012-11-12 19:54:00
1:54 PM,27.0,10.9,51,30.48,10.0,WSW,11.5,-,N/A,,Clear,240,2012-11-12 20:54:00
2:54 PM,26.1,10.0,51,30.49,10.0,West,8.1,-,N/A,,Clear,260,2012-11-12 21:54:00
3:54 PM,26.1,10.9,53,30.48,10.0,SSW,10.4,-,N/A,,Clear,210,2012-11-12 22:54:00
4:54 PM,26.1,12.9,58,30.47,10.0,SW,6.9,-,N/A,,Overcast,230,2012-11-12 23:54:00
5:54 PM,26.1,12.9,58,30.47,10.0,SSW,5.8,-,N/A,,Overcast,200,2012-11-13 00:54:00
6:54 PM,26.1,12.9,58,30.47,10.0,WSW,8.1,-,N/A,,Overcast,240,2012-11-13 01:54:00
7:54 PM,27.0,10.0,49,30.45,10.0,WSW,11.5,-,N/A,,Overcast,240,2012-11-13 02:54:00
8:54 PM,26.1,12.0,55,30.45,10.0,WSW,11.5,-,N/A,,Overcast,240,2012-11-13 03:54:00
9:54 PM,25.0,12.9,60,30.45,10.0,WSW,11.5,-,N/A,,Overcast,240,2012-11-13 04:54:00
10:54 PM,25.0,14.0,63,30.42,10.0,SW,9.2,-,N/A,,Mostly Cloudy,230,2012-11-13 05:54:00
11:54 PM,25.0,15.1,66,30.42,10.0,SSW,5.8,-,N/A,,Overcast,210,2012-11-13 06:54:00